Time,TemperatureF,DewpointF,PressureIn,WindDirection,WindDirectionDegrees,WindSpeedMPH,WindSpeedGustMPH,Humidity,HourlyPrecipIn,Conditions,Clouds,dailyrainin,SolarRadiationWatts/m^2,SoftwareType,DateUTC
2013-05-14 00:02:00,66.4,55.5,29.88,SSE,161,2.0,6.0,68,0.00,,,0.00,0,WeatherTracker,2013-05-14 07:02:00,
2013-05-14 00:07:00,66.2,55.3,29.89,SSE,161,2.0,6.0,68,0.00,,,0.00,0,WeatherTracker,2013-05-14 07:07:00,
2013-05-14 00:12:00,65.9,55.0,29.88,SSE,149,2.0,6.0,68,0.00,,,0.00,0,WeatherTracker,2013-05-14 07:12:00,
2013-05-14 00:17:00,65.6,54.7,29.89,SSE,149,0.0,6.0,68,0.00,,,0.00,0,WeatherTracker,2013-05-14 07:17:00,
2013-05-14 00:22:00,65.2,54.8,29.89,SE,130,5.0,7.0,69,0.00,,,0.00,0,WeatherTracker,2013-05-14 07:22:00,
2013-05-14 00:27:00,64.8,54.4,29.89,SE,130,0.0,7.0,69,0.00,,,0.00,0,WeatherTracker,2013-05-14 07:27:00,
2013-05-14 00:32:00,64.5,54.5,29.89,SE,130,0.0,7.0,70,0.00,,,0.00,0,WeatherTracker,2013-05-14 07:32:00,
2013-05-14 00:37:00,64.1,54.5,29.89,SE,130,0.0,4.0,71,0.00,,,0.00,0,WeatherTracker,2013-05-14 07:37:00,
2013-05-14 00:42:00,63.8,54.6,29.89,SE,130,0.0,4.0,72,0.00,,,0.00,0,WeatherTracker,2013-05-14 07:42:00,
2013-05-14 00:47:00,63.5,54.3,29.89,SE,130,0.0,4.0,72,0.00,,,0.00,0,WeatherTracker,2013-05-14 07:47:00,
2013-05-14 00:52:00,63.3,54.1,29.89,SE,130,0.0,0.0,72,0.00,,,0.00,0,WeatherTracker,2013-05-14 07:52:00,
2013-05-14 00:57:00,63.1,54.3,29.89,SE,130,0.0,0.0,73,0.00,,,0.00,0,WeatherTracker,2013-05-14 07:57:00,
2013-05-14 01:02:00,63.0,54.2,29.89,SE,130,0.0,0.0,73,0.00,,,0.00,0,WeatherTracker,2013-05-14 08:02:00,
2013-05-14 01:07:00,62.9,54.1,29.89,SE,130,0.0,0.0,73,0.00,,,0.00,0,WeatherTracker,2013-05-14 08:07:00,
2013-05-14 01:12:00,62.9,54.1,29.89,SE,130,0.0,0.0,73,0.00,,,0.00,0,WeatherTracker,2013-05-14 08:12:00,
2013-05-14 01:17:00,62.8,54.0,29.88,SE,130,0.0,0.0,73,0.00,,,0.00,0,WeatherTracker,2013-05-14 08:17:00,
2013-05-14 01:22:00,62.7,54.3,29.88,SE,130,0.0,0.0,74,0.00,,,0.00,0,WeatherTracker,2013-05-14 08:22:00,
2013-05-14 01:27:00,62.6,54.2,29.88,SE,130,0.0,0.0,74,0.00,,,0.00,0,WeatherTracker,2013-05-14 08:27:00,
2013-05-14 01:32:00,62.5,54.1,29.88,SE,130,0.0,0.0,74,0.00,,,0.00,0,WeatherTracker,2013-05-14 08:32:00,
2013-05-14 01:37:00,62.4,54.0,29.88,SE,130,0.0,0.0,74,0.00,,,0.00,0,WeatherTracker,2013-05-14 08:37:00,
2013-05-14 01:42:00,62.4,54.0,29.88,SE,130,0.0,0.0,74,0.00,,,0.00,0,WeatherTracker,2013-05-14 08:42:00,
2013-05-14 01:47:00,62.3,53.9,29.87,SE,130,0.0,0.0,74,0.00,,,0.00,0,WeatherTracker,2013-05-14 08:47:00,
2013-05-14 01:52:00,62.2,53.8,29.87,SE,130,0.0,0.0,74,0.00,,,0.00,0,WeatherTracker,2013-05-14 08:52:00,
2013-05-14 01:58:00,62.2,53.8,29.87,SE,130,0.0,0.0,74,0.00,,,0.00,0,WeatherTracker,2013-05-14 08:58:00,
2013-05-14 02:03:00,62.1,53.7,29.87,SE,130,0.0,0.0,74,0.00,,,0.00,0,WeatherTracker,2013-05-14 09:03:00,
2013-05-14 02:08:00,62.0,53.6,29.87,SE,130,0.0,0.0,74,0.00,,,0.00,0,WeatherTracker,2013-05-14 09:08:00,
2013-05-14 02:13:00,61.9,53.5,29.87,SE,130,0.0,0.0,74,0.00,,,0.00,0,WeatherTracker,2013-05-14 09:13:00,
2013-05-14 02:18:00,61.8,53.4,29.87,SE,130,0.0,0.0,74,0.00,,,0.00,0,WeatherTracker,2013-05-14 09:18:00,
2013-05-14 02:23:00,61.7,53.7,29.87,SE,130,0.0,0.0,75,0.00,,,0.00,0,WeatherTracker,2013-05-14 09:23:00,
2013-05-14 02:28:00,61.6,53.6,29.87,SE,130,0.0,0.0,75,0.00,,,0.00,0,WeatherTracker,2013-05-14 09:28:00,
2013-05-14 02:33:00,61.4,53.4,29.87,SE,130,0.0,0.0,75,0.00,,,0.00,0,WeatherTracker,2013-05-14 09:33:00,
2013-05-14 02:38:00,61.3,53.7,29.87,SE,130,0.0,0.0,76,0.00,,,0.00,0,WeatherTracker,2013-05-14 09:38:00,
2013-05-14 02:43:00,61.2,53.6,29.87,SE,130,0.0,0.0,76,0.00,,,0.00,0,WeatherTracker,2013-05-14 09:43:00,
2013-05-14 02:48:00,61.1,53.5,29.87,SE,130,0.0,0.0,76,0.00,,,0.00,0,WeatherTracker,2013-05-14 09:48:00,
2013-05-14 02:53:00,61.0,53.4,29.87,SE,130,0.0,0.0,76,0.00,,,0.00,0,WeatherTracker,2013-05-14 09:53:00,
2013-05-14 02:58:00,61.0,53.4,29.87,SE,130,2.0,0.0,76,0.00,,,0.00,0,WeatherTracker,2013-05-14 09:58:00,
2013-05-14 03:03:00,61.1,53.5,29.87,ESE,119,0.0,7.0,76,0.00,,,0.00,0,WeatherTracker,2013-05-14 10:03:00,
2013-05-14 03:08:00,61.2,53.6,29.87,ESE,119,0.0,7.0,76,0.00,,,0.00,0,WeatherTracker,2013-05-14 10:08:00,
2013-05-14 03:13:00,61.4,53.8,29.87,ESE,119,0.0,6.0,76,0.00,,,0.00,0,WeatherTracker,2013-05-14 10:13:00,
2013-05-14 03:18:00,61.4,54.1,29.87,ESE,118,0.0,5.0,77,0.00,,,0.00,0,WeatherTracker,2013-05-14 10:18:00,
2013-05-14 03:23:00,61.3,53.7,29.87,ESE,118,1.0,5.0,76,0.00,,,0.00,0,WeatherTracker,2013-05-14 10:23:00,
2013-05-14 03:28:00,61.2,53.9,29.87,ESE,118,0.0,5.0,77,0.00,,,0.00,0,WeatherTracker,2013-05-14 10:28:00,
2013-05-14 03:33:00,61.1,53.8,29.87,ESE,118,0.0,4.0,77,0.00,,,0.00,0,WeatherTracker,2013-05-14 10:33:00,
2013-05-14 03:39:00,60.9,53.6,29.87,ESE,118,0.0,4.0,77,0.00,,,0.00,0,WeatherTracker,2013-05-14 10:39:00,
2013-05-14 03:44:00,60.7,53.4,29.86,ESE,118,0.0,0.0,77,0.00,,,0.00,0,WeatherTracker,2013-05-14 10:44:00,
2013-05-14 03:49:00,60.5,53.3,29.86,ESE,118,0.0,0.0,77,0.00,,,0.00,0,WeatherTracker,2013-05-14 10:49:00,
2013-05-14 03:54:00,60.3,53.4,29.86,ESE,118,0.0,0.0,78,0.00,,,0.00,0,WeatherTracker,2013-05-14 10:54:00,
2013-05-14 03:59:00,60.2,53.3,29.86,ESE,118,0.0,0.0,78,0.00,,,0.00,0,WeatherTracker,2013-05-14 10:59:00,
2013-05-14 04:04:00,60.0,53.1,29.86,ESE,118,0.0,0.0,78,0.00,,,0.00,0,WeatherTracker,2013-05-14 11:04:00,
2013-05-14 04:09:00,59.8,53.3,29.86,ESE,118,0.0,0.0,79,0.00,,,0.00,0,WeatherTracker,2013-05-14 11:09:00,
2013-05-14 04:14:00,59.6,53.1,29.86,ESE,118,0.0,0.0,79,0.00,,,0.00,0,WeatherTracker,2013-05-14 11:14:00,
2013-05-14 04:19:00,59.4,53.2,29.86,ESE,118,0.0,0.0,80,0.00,,,0.00,0,WeatherTracker,2013-05-14 11:19:00,
2013-05-14 04:24:00,59.2,53.0,29.86,ESE,118,0.0,0.0,80,0.00,,,0.00,0,WeatherTracker,2013-05-14 11:24:00,
2013-05-14 04:29:00,59.0,52.8,29.86,ESE,118,0.0,0.0,80,0.00,,,0.00,0,WeatherTracker,2013-05-14 11:29:00,
2013-05-14 04:34:00,58.9,52.7,29.86,ESE,118,0.0,0.0,80,0.00,,,0.00,0,WeatherTracker,2013-05-14 11:34:00,
2013-05-14 04:39:00,58.7,52.5,29.85,ESE,118,0.0,0.0,80,0.00,,,0.00,0,WeatherTracker,2013-05-14 11:39:00,
2013-05-14 04:44:00,58.6,52.4,29.85,ESE,118,0.0,0.0,80,0.00,,,0.00,0,WeatherTracker,2013-05-14 11:44:00,
2013-05-14 04:49:00,58.4,52.3,29.86,ESE,118,0.0,0.0,80,0.00,,,0.00,0,WeatherTracker,2013-05-14 11:49:00,
2013-05-14 04:54:00,58.2,52.4,29.86,ESE,118,0.0,0.0,81,0.00,,,0.00,0,WeatherTracker,2013-05-14 11:54:00,
2013-05-14 04:59:00,58.1,52.3,29.85,ESE,118,0.0,0.0,81,0.00,,,0.00,0,WeatherTracker,2013-05-14 11:59:00,
2013-05-14 05:04:00,58.1,52.3,29.86,ESE,118,0.0,0.0,81,0.00,,,0.00,0,WeatherTracker,2013-05-14 12:04:00,
2013-05-14 05:10:00,58.1,52.3,29.86,ESE,118,0.0,0.0,81,0.00,,,0.00,0,WeatherTracker,2013-05-14 12:10:00,
2013-05-14 05:15:00,58.1,52.6,29.86,ESE,118,0.0,0.0,82,0.00,,,0.00,0,WeatherTracker,2013-05-14 12:15:00,
2013-05-14 05:20:00,58.1,52.3,29.86,ESE,118,0.0,0.0,81,0.00,,,0.00,0,WeatherTracker,2013-05-14 12:20:00,
2013-05-14 05:25:00,58.1,52.6,29.86,ESE,118,0.0,0.0,82,0.00,,,0.00,0,WeatherTracker,2013-05-14 12:25:00,
2013-05-14 05:30:00,58.1,52.6,29.86,ESE,118,0.0,0.0,82,0.00,,,0.00,0,WeatherTracker,2013-05-14 12:30:00,
2013-05-14 05:35:00,58.1,52.6,29.86,ESE,118,0.0,0.0,82,0.00,,,0.00,0,WeatherTracker,2013-05-14 12:35:00,
2013-05-14 05:40:00,58.1,52.6,29.86,ESE,118,0.0,0.0,82,0.00,,,0.00,0,WeatherTracker,2013-05-14 12:40:00,
2013-05-14 05:45:00,58.1,52.6,29.86,ESE,118,0.0,0.0,82,0.00,,,0.00,0,WeatherTracker,2013-05-14 12:45:00,
2013-05-14 05:50:00,58.1,52.6,29.87,ESE,118,0.0,0.0,82,0.00,,,0.00,0,WeatherTracker,2013-05-14 12:50:00,
2013-05-14 05:55:00,57.9,52.4,29.87,ESE,118,0.0,0.0,82,0.00,,,0.00,0,WeatherTracker,2013-05-14 12:55:00,
2013-05-14 06:00:00,57.7,52.2,29.87,ESE,118,0.0,0.0,82,0.00,,,0.00,5,WeatherTracker,2013-05-14 13:00:00,
2013-05-14 06:05:00,57.5,52.4,29.87,ESE,118,0.0,0.0,83,0.00,,,0.00,9,WeatherTracker,2013-05-14 13:05:00,
2013-05-14 06:10:00,57.4,52.3,29.88,ESE,118,0.0,0.0,83,0.00,,,0.00,12,WeatherTracker,2013-05-14 13:10:00,
2013-05-14 06:15:00,57.4,52.3,29.88,ESE,118,0.0,0.0,83,0.00,,,0.00,14,WeatherTracker,2013-05-14 13:15:00,
2013-05-14 06:20:00,57.4,52.3,29.88,ESE,118,0.0,0.0,83,0.00,,,0.00,19,WeatherTracker,2013-05-14 13:20:00,
2013-05-14 06:25:00,57.4,52.6,29.88,ESE,118,0.0,0.0,84,0.00,,,0.00,23,WeatherTracker,2013-05-14 13:25:00,
2013-05-14 06:30:00,57.4,52.6,29.88,ESE,118,0.0,0.0,84,0.00,,,0.00,26,WeatherTracker,2013-05-14 13:30:00,
2013-05-14 06:35:00,57.5,52.7,29.88,ESE,118,0.0,0.0,84,0.00,,,0.00,28,WeatherTracker,2013-05-14 13:35:00,
2013-05-14 06:41:00,57.6,52.8,29.88,ESE,117,0.0,0.0,84,0.00,,,0.00,30,WeatherTracker,2013-05-14 13:41:00,
2013-05-14 06:46:00,57.9,53.1,29.88,ESE,117,0.0,0.0,84,0.00,,,0.00,40,WeatherTracker,2013-05-14 13:46:00,
2013-05-14 06:51:00,58.1,53.3,29.88,ESE,117,0.0,0.0,84,0.00,,,0.00,105,WeatherTracker,2013-05-14 13:51:00,
2013-05-14 06:56:00,58.5,53.7,29.88,SE,130,0.0,0.0,84,0.00,,,0.00,121,WeatherTracker,2013-05-14 13:56:00,
2013-05-14 07:01:00,59.5,54.3,29.88,SSE,150,0.0,0.0,83,0.00,,,0.00,135,WeatherTracker,2013-05-14 14:01:00,
2013-05-14 07:06:00,60.2,54.3,29.88,SSE,150,0.0,0.0,81,0.00,,,0.00,153,WeatherTracker,2013-05-14 14:06:00,
2013-05-14 07:11:00,60.9,54.3,29.88,SSE,150,0.0,0.0,79,0.00,,,0.00,171,WeatherTracker,2013-05-14 14:11:00,
2013-05-14 07:16:00,61.3,54.4,29.88,SSE,150,0.0,0.0,78,0.00,,,0.00,186,WeatherTracker,2013-05-14 14:16:00,
2013-05-14 07:21:00,61.7,55.1,29.88,SSE,155,0.0,0.0,79,0.00,,,0.00,98,WeatherTracker,2013-05-14 14:21:00,
2013-05-14 07:26:00,62.1,55.5,29.88,SSE,153,0.0,0.0,79,0.00,,,0.00,49,WeatherTracker,2013-05-14 14:26:00,
2013-05-14 07:31:00,62.4,55.4,29.88,SSE,153,0.0,0.0,78,0.00,,,0.00,230,WeatherTracker,2013-05-14 14:31:00,
2013-05-14 07:36:00,62.8,55.8,29.88,SSE,153,0.0,0.0,78,0.00,,,0.00,253,WeatherTracker,2013-05-14 14:36:00,
2013-05-14 07:41:00,63.4,56.1,29.88,SSE,153,0.0,0.0,77,0.00,,,0.00,271,WeatherTracker,2013-05-14 14:41:00,
2013-05-14 07:46:00,64.2,56.1,29.87,SSE,163,0.0,5.0,75,0.00,,,0.00,288,WeatherTracker,2013-05-14 14:46:00,
2013-05-14 07:51:00,65.3,56.0,29.87,SE,146,0.0,5.0,72,0.00,,,0.00,304,WeatherTracker,2013-05-14 14:51:00,
2013-05-14 07:56:00,66.4,55.9,29.87,NW,308,0.0,6.0,69,0.00,,,0.00,320,WeatherTracker,2013-05-14 14:56:00,
2013-05-14 08:01:00,67.4,55.6,29.88,NW,305,3.0,6.0,66,0.00,,,0.00,338,WeatherTracker,2013-05-14 15:01:00,
2013-05-14 08:06:00,68.4,55.3,29.87,NW,307,0.0,10.0,63,0.00,,,0.00,353,WeatherTracker,2013-05-14 15:06:00,
2013-05-14 08:11:00,69.3,54.8,29.87,WNW,302,3.0,10.0,60,0.00,,,0.00,369,WeatherTracker,2013-05-14 15:11:00,
2013-05-14 08:16:00,70.1,55.1,29.87,NNW,336,0.0,8.0,59,0.00,,,0.00,387,WeatherTracker,2013-05-14 15:16:00,
2013-05-14 08:21:00,70.6,54.6,29.87,NNW,327,6.0,10.0,57,0.00,,,0.00,404,WeatherTracker,2013-05-14 15:21:00,
2013-05-14 08:26:00,71.1,54.1,29.87,NE,34,5.0,10.0,55,0.00,,,0.00,417,WeatherTracker,2013-05-14 15:26:00,
2013-05-14 08:31:00,71.4,54.4,29.87,NNW,344,4.0,10.0,55,0.00,,,0.00,434,WeatherTracker,2013-05-14 15:31:00,
2013-05-14 08:36:00,71.9,53.8,29.87,NNW,346,9.0,11.0,53,0.00,,,0.00,450,WeatherTracker,2013-05-14 15:36:00,
2013-05-14 08:42:00,72.4,54.8,29.88,NW,309,6.0,12.0,54,0.00,,,0.00,466,WeatherTracker,2013-05-14 15:42:00,
2013-05-14 08:47:00,73.0,53.2,29.87,NW,318,13.0,13.0,50,0.00,,,0.00,482,WeatherTracker,2013-05-14 15:47:00,
2013-05-14 08:52:00,73.4,53.6,29.87,West,281,3.0,13.0,50,0.00,,,0.00,501,WeatherTracker,2013-05-14 15:52:00,
2013-05-14 08:57:00,73.9,53.0,29.87,NNW,329,7.0,13.0,48,0.00,,,0.00,515,WeatherTracker,2013-05-14 15:57:00,
2013-05-14 09:02:00,74.3,53.3,29.87,NW,309,11.0,13.0,48,0.00,,,0.00,531,WeatherTracker,2013-05-14 16:02:00,
2013-05-14 09:07:00,74.5,52.9,29.87,NNW,339,5.0,12.0,47,0.00,,,0.00,550,WeatherTracker,2013-05-14 16:07:00,
2013-05-14 09:12:00,74.7,52.5,29.88,NNW,333,6.0,14.0,46,0.00,,,0.00,566,WeatherTracker,2013-05-14 16:12:00,
2013-05-14 09:17:00,74.8,52.6,29.88,North,355,0.0,14.0,46,0.00,,,0.00,578,WeatherTracker,2013-05-14 16:17:00,
2013-05-14 09:22:00,74.9,53.3,29.88,NNW,337,3.0,14.0,47,0.00,,,0.00,591,WeatherTracker,2013-05-14 16:22:00,
2013-05-14 09:27:00,75.4,53.7,29.88,NW,318,5.0,12.0,47,0.00,,,0.00,606,WeatherTracker,2013-05-14 16:27:00,
2013-05-14 09:32:00,75.7,53.4,29.88,NW,312,1.0,11.0,46,0.00,,,0.00,619,WeatherTracker,2013-05-14 16:32:00,
2013-05-14 09:37:00,76.2,54.5,29.88,NW,314,3.0,11.0,47,0.00,,,0.00,633,WeatherTracker,2013-05-14 16:37:00,
2013-05-14 09:42:00,76.6,54.3,29.88,NNW,343,7.0,10.0,46,0.00,,,0.00,647,WeatherTracker,2013-05-14 16:42:00,
2013-05-14 09:47:00,76.7,54.3,29.89,NNW,328,8.0,10.0,46,0.00,,,0.00,663,WeatherTracker,2013-05-14 16:47:00,
2013-05-14 09:52:00,76.9,53.9,29.89,NNW,336,7.0,13.0,45,0.00,,,0.00,675,WeatherTracker,2013-05-14 16:52:00,
2013-05-14 09:57:00,76.9,53.9,29.89,NNW,343,3.0,13.0,45,0.00,,,0.00,687,WeatherTracker,2013-05-14 16:57:00,
2013-05-14 10:02:00,77.1,54.1,29.89,NNE,13,1.0,11.0,45,0.00,,,0.00,701,WeatherTracker,2013-05-14 17:02:00,
2013-05-14 10:07:00,77.4,53.8,29.89,NW,317,2.0,10.0,44,0.00,,,0.00,717,WeatherTracker,2013-05-14 17:07:00,
2013-05-14 10:12:00,77.8,54.7,29.89,NW,312,4.0,9.0,45,0.00,,,0.00,726,WeatherTracker,2013-05-14 17:12:00,
2013-05-14 10:17:00,78.2,54.5,29.89,NNW,333,2.0,9.0,44,0.00,,,0.00,738,WeatherTracker,2013-05-14 17:17:00,
2013-05-14 10:23:00,78.6,54.8,29.89,North,349,2.0,11.0,44,0.00,,,0.00,751,WeatherTracker,2013-05-14 17:23:00,
2013-05-14 10:28:00,78.8,54.4,29.89,NNW,336,2.0,11.0,43,0.00,,,0.00,761,WeatherTracker,2013-05-14 17:28:00,
2013-05-14 10:33:00,79.2,54.7,29.89,WNW,287,4.0,9.0,43,0.00,,,0.00,773,WeatherTracker,2013-05-14 17:33:00,
2013-05-14 10:38:00,79.6,54.5,29.89,WNW,301,3.0,9.0,42,0.00,,,0.00,788,WeatherTracker,2013-05-14 17:38:00,
2013-05-14 10:43:00,79.7,54.6,29.89,NW,304,10.0,10.0,42,0.00,,,0.00,796,WeatherTracker,2013-05-14 17:43:00,
2013-05-14 10:48:00,80.2,54.3,29.89,NW,312,5.0,11.0,41,0.00,,,0.00,812,WeatherTracker,2013-05-14 17:48:00,
2013-05-14 10:53:00,80.4,53.1,29.89,NNW,331,1.0,12.0,39,0.00,,,0.00,824,WeatherTracker,2013-05-14 17:53:00,
2013-05-14 10:58:00,80.4,53.1,29.89,West,273,1.0,12.0,39,0.00,,,0.00,837,WeatherTracker,2013-05-14 17:58:00,
2013-05-14 11:03:00,80.7,52.7,29.89,North,360,0.0,10.0,38,0.00,,,0.00,842,WeatherTracker,2013-05-14 18:03:00,
2013-05-14 11:08:00,81.0,53.7,29.89,NNW,332,4.0,9.0,39,0.00,,,0.00,847,WeatherTracker,2013-05-14 18:08:00,
2013-05-14 11:13:00,81.0,53.0,29.89,NNW,338,5.0,12.0,38,0.00,,,0.00,858,WeatherTracker,2013-05-14 18:13:00,
2013-05-14 11:18:00,81.5,52.7,29.89,NNW,347,2.0,13.0,37,0.00,,,0.00,867,WeatherTracker,2013-05-14 18:18:00,
2013-05-14 11:23:00,81.9,53.8,29.89,West,277,4.0,13.0,38,0.00,,,0.00,874,WeatherTracker,2013-05-14 18:23:00,
2013-05-14 11:28:00,82.5,54.3,29.88,NNW,346,4.0,10.0,38,0.00,,,0.00,884,WeatherTracker,2013-05-14 18:28:00,
2013-05-14 11:33:00,83.0,53.3,29.88,WNW,297,4.0,9.0,36,0.00,,,0.00,891,WeatherTracker,2013-05-14 18:33:00,
2013-05-14 11:38:00,83.2,53.4,29.88,NNW,346,1.0,9.0,36,0.00,,,0.00,900,WeatherTracker,2013-05-14 18:38:00,
2013-05-14 11:43:00,83.1,52.6,29.88,NNW,341,2.0,15.0,35,0.00,,,0.00,905,WeatherTracker,2013-05-14 18:43:00,
2013-05-14 11:48:00,83.2,53.4,29.88,WNW,296,0.0,15.0,36,0.00,,,0.00,911,WeatherTracker,2013-05-14 18:48:00,
2013-05-14 11:53:00,83.7,54.6,29.88,NNW,332,1.0,7.0,37,0.00,,,0.00,918,WeatherTracker,2013-05-14 18:53:00,
2013-05-14 11:58:00,84.2,54.3,29.88,NNW,329,3.0,6.0,36,0.00,,,0.00,921,WeatherTracker,2013-05-14 18:58:00,
2013-05-14 12:03:00,84.3,53.6,29.88,NNW,341,1.0,5.0,35,0.00,,,0.00,923,WeatherTracker,2013-05-14 19:03:00,
2013-05-14 12:08:00,84.5,53.0,29.88,NNW,328,1.0,5.0,34,0.00,,,0.00,930,WeatherTracker,2013-05-14 19:08:00,
2013-05-14 12:13:00,84.5,53.8,29.88,West,266,2.0,5.0,35,0.00,,,0.00,933,WeatherTracker,2013-05-14 19:13:00,
2013-05-14 12:18:00,84.9,55.7,29.88,NNW,331,1.0,6.0,37,0.00,,,0.00,942,WeatherTracker,2013-05-14 19:18:00,
2013-05-14 12:23:00,85.4,55.4,29.88,WNW,300,3.0,6.0,36,0.00,,,0.00,939,WeatherTracker,2013-05-14 19:23:00,
2013-05-14 12:29:00,85.8,55.7,29.88,NNW,333,0.0,9.0,36,0.00,,,0.00,944,WeatherTracker,2013-05-14 19:29:00,
2013-05-14 12:34:00,86.1,54.4,29.87,NNW,336,1.0,9.0,34,0.00,,,0.00,947,WeatherTracker,2013-05-14 19:34:00,
2013-05-14 12:39:00,86.1,53.6,29.87,NNW,340,1.0,5.0,33,0.00,,,0.00,949,WeatherTracker,2013-05-14 19:39:00,
2013-05-14 12:44:00,86.2,53.7,29.87,NW,319,1.0,5.0,33,0.00,,,0.00,951,WeatherTracker,2013-05-14 19:44:00,
2013-05-14 12:49:00,86.6,55.6,29.87,WNW,300,1.0,5.0,35,0.00,,,0.00,951,WeatherTracker,2013-05-14 19:49:00,
2013-05-14 12:54:00,87.0,53.5,29.87,WNW,303,0.0,4.0,32,0.00,,,0.00,956,WeatherTracker,2013-05-14 19:54:00,
2013-05-14 12:59:00,87.3,52.9,29.87,WNW,303,0.0,4.0,31,0.00,,,0.00,954,WeatherTracker,2013-05-14 19:59:00,
2013-05-14 13:04:00,87.4,54.7,29.87,NE,51,1.0,3.0,33,0.00,,,0.00,953,WeatherTracker,2013-05-14 20:04:00,
2013-05-14 13:09:00,87.6,54.9,29.86,NNE,32,0.0,3.0,33,0.00,,,0.00,954,WeatherTracker,2013-05-14 20:09:00,
2013-05-14 13:14:00,88.1,55.3,29.86,NW,305,0.0,3.0,33,0.00,,,0.00,953,WeatherTracker,2013-05-14 20:14:00,
2013-05-14 13:19:00,88.3,54.7,29.86,East,90,1.0,2.0,32,0.00,,,0.00,949,WeatherTracker,2013-05-14 20:19:00,
2013-05-14 13:24:00,88.4,53.9,29.86,NE,50,0.0,2.0,31,0.00,,,0.00,949,WeatherTracker,2013-05-14 20:24:00,
2013-05-14 13:29:00,88.5,56.5,29.86,East,81,0.0,2.0,34,0.00,,,0.00,947,WeatherTracker,2013-05-14 20:29:00,
2013-05-14 13:34:00,88.6,54.9,29.86,East,83,0.0,5.0,32,0.00,,,0.00,942,WeatherTracker,2013-05-14 20:34:00,
2013-05-14 13:39:00,88.6,54.1,29.85,ENE,74,0.0,5.0,31,0.00,,,0.00,946,WeatherTracker,2013-05-14 20:39:00,
2013-05-14 13:44:00,89.1,56.2,29.85,ENE,75,0.0,2.0,33,0.00,,,0.00,939,WeatherTracker,2013-05-14 20:44:00,
2013-05-14 13:49:00,89.5,54.8,29.85,East,82,2.0,2.0,31,0.00,,,0.00,937,WeatherTracker,2013-05-14 20:49:00,
2013-05-14 13:54:00,89.3,53.8,29.85,ENE,71,0.0,3.0,30,0.00,,,0.00,933,WeatherTracker,2013-05-14 20:54:00,
2013-05-14 13:59:00,89.8,55.1,29.85,ENE,69,0.0,4.0,31,0.00,,,0.00,930,WeatherTracker,2013-05-14 20:59:00,
2013-05-14 14:04:00,89.7,54.1,29.85,ENE,72,3.0,4.0,30,0.00,,,0.00,925,WeatherTracker,2013-05-14 21:04:00,
2013-05-14 14:09:00,89.9,57.7,29.85,ENE,76,4.0,5.0,34,0.00,,,0.00,909,WeatherTracker,2013-05-14 21:09:00,
2013-05-14 14:14:00,89.8,59.2,29.84,SSE,153,1.0,10.0,36,0.00,,,0.00,904,WeatherTracker,2013-05-14 21:14:00,
2013-05-14 14:20:00,89.3,58.8,29.84,South,188,0.0,9.0,36,0.00,,,0.00,904,WeatherTracker,2013-05-14 21:20:00,
2013-05-14 14:25:00,89.4,58.9,29.84,ESE,106,9.0,13.0,36,0.00,,,0.00,898,WeatherTracker,2013-05-14 21:25:00,
2013-05-14 14:30:00,89.2,60.2,29.84,SE,145,0.0,14.0,38,0.00,,,0.00,893,WeatherTracker,2013-05-14 21:30:00,
2013-05-14 14:35:00,88.9,58.4,29.84,ESE,111,4.0,14.0,36,0.00,,,0.00,884,WeatherTracker,2013-05-14 21:35:00,
2013-05-14 14:40:00,88.8,59.1,29.84,ESE,115,9.0,13.0,37,0.00,,,0.00,870,WeatherTracker,2013-05-14 21:40:00,
2013-05-14 14:45:00,88.8,59.1,29.84,ESE,114,2.0,11.0,37,0.00,,,0.00,867,WeatherTracker,2013-05-14 21:45:00,
2013-05-14 14:50:00,89.3,59.6,29.84,SSE,157,6.0,11.0,37,0.00,,,0.00,860,WeatherTracker,2013-05-14 21:50:00,
2013-05-14 14:55:00,89.4,59.7,29.84,SE,135,7.0,11.0,37,0.00,,,0.00,849,WeatherTracker,2013-05-14 21:55:00,
2013-05-14 15:00:00,89.4,59.7,29.84,ESE,117,11.0,11.0,37,0.00,,,0.00,840,WeatherTracker,2013-05-14 22:00:00,
2013-05-14 15:05:00,89.1,58.6,29.84,ENE,70,5.0,11.0,36,0.00,,,0.00,833,WeatherTracker,2013-05-14 22:05:00,
2013-05-14 15:10:00,89.3,58.8,29.83,ESE,119,9.0,11.0,36,0.00,,,0.00,823,WeatherTracker,2013-05-14 22:10:00,
2013-05-14 15:15:00,89.1,60.1,29.83,East,94,5.0,12.0,38,0.00,,,0.00,814,WeatherTracker,2013-05-14 22:15:00,
2013-05-14 15:20:00,89.3,58.8,29.83,East,87,6.0,13.0,36,0.00,,,0.00,807,WeatherTracker,2013-05-14 22:20:00,
2013-05-14 15:25:00,89.3,60.3,29.83,SE,142,8.0,14.0,38,0.00,,,0.00,791,WeatherTracker,2013-05-14 22:25:00,
2013-05-14 15:30:00,89.2,60.2,29.83,ESE,109,7.0,15.0,38,0.00,,,0.00,782,WeatherTracker,2013-05-14 22:30:00,
2013-05-14 15:35:00,89.0,59.3,29.83,ESE,121,7.0,15.0,37,0.00,,,0.00,737,WeatherTracker,2013-05-14 22:35:00,
2013-05-14 15:40:00,88.7,59.0,29.83,SE,140,9.0,19.0,37,0.00,,,0.00,733,WeatherTracker,2013-05-14 22:40:00,
2013-05-14 15:46:00,88.3,59.4,29.83,ESE,118,5.0,19.0,38,0.00,,,0.00,752,WeatherTracker,2013-05-14 22:46:00,
2013-05-14 15:51:00,88.4,59.5,29.83,East,95,7.0,15.0,38,0.00,,,0.00,737,WeatherTracker,2013-05-14 22:51:00,
2013-05-14 15:56:00,87.8,59.0,29.83,ESE,115,11.0,18.0,38,0.00,,,0.00,719,WeatherTracker,2013-05-14 22:56:00,
2013-05-14 16:01:00,87.3,59.3,29.84,ESE,108,9.0,19.0,39,0.00,,,0.00,705,WeatherTracker,2013-05-14 23:01:00,
2013-05-14 16:06:00,87.3,58.5,29.83,SE,129,17.0,19.0,38,0.00,,,0.00,691,WeatherTracker,2013-05-14 23:06:00,
2013-05-14 16:11:00,87.0,58.3,29.84,SE,134,17.0,18.0,38,0.00,,,0.00,679,WeatherTracker,2013-05-14 23:11:00,
2013-05-14 16:16:00,86.8,58.1,29.84,SE,142,12.0,18.0,38,0.00,,,0.00,664,WeatherTracker,2013-05-14 23:16:00,
2013-05-14 16:21:00,87.0,59.0,29.84,SE,132,12.0,18.0,39,0.00,,,0.00,650,WeatherTracker,2013-05-14 23:21:00,
2013-05-14 16:26:00,86.9,58.2,29.84,ESE,116,8.0,18.0,38,0.00,,,0.00,638,WeatherTracker,2013-05-14 23:26:00,
2013-05-14 16:31:00,86.7,58.7,29.84,ESE,115,8.0,18.0,39,0.00,,,0.00,626,WeatherTracker,2013-05-14 23:31:00,
2013-05-14 16:36:00,86.6,57.2,29.84,ESE,117,9.0,18.0,37,0.00,,,0.00,626,WeatherTracker,2013-05-14 23:36:00,
2013-05-14 16:41:00,86.2,57.6,29.84,SE,125,7.0,17.0,38,0.00,,,0.00,635,WeatherTracker,2013-05-14 23:41:00,
2013-05-14 16:46:00,85.8,56.5,29.84,ESE,115,9.0,22.0,37,0.00,,,0.00,626,WeatherTracker,2013-05-14 23:46:00,
2013-05-14 16:51:00,85.6,56.3,29.84,ESE,116,14.0,22.0,37,0.00,,,0.00,563,WeatherTracker,2013-05-14 23:51:00,
2013-05-14 16:57:00,85.1,55.9,29.84,SE,135,14.0,20.0,37,0.00,,,0.00,563,WeatherTracker,2013-05-14 23:57:00,
2013-05-14 17:02:00,84.7,55.5,29.84,ESE,107,11.0,22.0,37,0.00,,,0.00,455,WeatherTracker,2013-05-15 00:02:00,
2013-05-14 17:07:00,84.9,56.4,29.84,ESE,102,8.0,22.0,38,0.00,,,0.00,425,WeatherTracker,2013-05-15 00:07:00,
2013-05-14 17:12:00,84.8,55.6,29.84,SE,140,11.0,18.0,37,0.00,,,0.00,534,WeatherTracker,2013-05-15 00:12:00,
2013-05-14 17:17:00,84.4,56.7,29.84,ESE,122,8.0,24.0,39,0.00,,,0.00,517,WeatherTracker,2013-05-15 00:17:00,
2013-05-14 17:22:00,84.5,56.8,29.84,SE,138,12.0,24.0,39,0.00,,,0.00,512,WeatherTracker,2013-05-15 00:22:00,
2013-05-14 17:27:00,84.4,56.7,29.84,SE,127,8.0,19.0,39,0.00,,,0.00,501,WeatherTracker,2013-05-15 00:27:00,
2013-05-14 17:32:00,84.5,56.1,29.84,ESE,120,8.0,19.0,38,0.00,,,0.00,476,WeatherTracker,2013-05-15 00:32:00,
2013-05-14 17:37:00,84.1,56.4,29.84,ESE,113,8.0,18.0,39,0.00,,,0.00,452,WeatherTracker,2013-05-15 00:37:00,
2013-05-14 17:42:00,84.1,55.7,29.83,SE,138,11.0,18.0,38,0.00,,,0.00,436,WeatherTracker,2013-05-15 00:42:00,
2013-05-14 17:47:00,84.1,56.4,29.83,SE,130,15.0,18.0,39,0.00,,,0.00,410,WeatherTracker,2013-05-15 00:47:00,
2013-05-14 17:52:00,84.0,55.6,29.83,SSE,158,9.0,16.0,38,0.00,,,0.00,385,WeatherTracker,2013-05-15 00:52:00,
2013-05-14 17:57:00,83.7,55.4,29.83,SE,142,11.0,16.0,38,0.00,,,0.00,367,WeatherTracker,2013-05-15 00:57:00,
2013-05-14 18:02:00,83.4,55.1,29.83,ESE,121,5.0,16.0,38,0.00,,,0.00,352,WeatherTracker,2013-05-15 01:02:00,
2013-05-14 18:07:00,83.1,55.5,29.83,SE,133,4.0,15.0,39,0.00,,,0.00,339,WeatherTracker,2013-05-15 01:07:00,
2013-05-14 18:13:00,83.0,55.5,29.83,SSE,157,4.0,15.0,39,0.00,,,0.00,323,WeatherTracker,2013-05-15 01:13:00,
2013-05-14 18:18:00,82.7,55.2,29.83,SSE,156,7.0,15.0,39,0.00,,,0.00,309,WeatherTracker,2013-05-15 01:18:00,
2013-05-14 18:23:00,82.2,55.4,29.83,SE,140,4.0,15.0,40,0.00,,,0.00,292,WeatherTracker,2013-05-15 01:23:00,
2013-05-14 18:28:00,81.8,55.1,29.82,SE,136,5.0,14.0,40,0.00,,,0.00,276,WeatherTracker,2013-05-15 01:28:00,
2013-05-14 18:33:00,82.0,55.3,29.82,SE,136,1.0,14.0,40,0.00,,,0.00,258,WeatherTracker,2013-05-15 01:33:00,
2013-05-14 18:38:00,81.8,55.8,29.82,SE,141,6.0,13.0,41,0.00,,,0.00,237,WeatherTracker,2013-05-15 01:38:00,
2013-05-14 18:43:00,81.9,55.9,29.82,SE,126,6.0,13.0,41,0.00,,,0.00,214,WeatherTracker,2013-05-15 01:43:00,
2013-05-14 18:48:00,81.8,55.8,29.82,SE,135,1.0,11.0,41,0.00,,,0.00,192,WeatherTracker,2013-05-15 01:48:00,
2013-05-14 18:53:00,81.7,55.7,29.82,SE,130,5.0,11.0,41,0.00,,,0.00,169,WeatherTracker,2013-05-15 01:53:00,
2013-05-14 18:58:00,81.1,55.8,29.82,SE,128,5.0,11.0,42,0.00,,,0.00,141,WeatherTracker,2013-05-15 01:58:00,
2013-05-14 19:03:00,80.7,55.4,29.82,ESE,115,7.0,11.0,42,0.00,,,0.00,121,WeatherTracker,2013-05-15 02:03:00,
2013-05-14 19:08:00,80.5,55.9,29.82,South,175,9.0,9.0,43,0.00,,,0.00,109,WeatherTracker,2013-05-15 02:08:00,
2013-05-14 19:13:00,80.2,55.6,29.82,South,172,2.0,10.0,43,0.00,,,0.00,77,WeatherTracker,2013-05-15 02:13:00,
2013-05-14 19:18:00,79.8,55.9,29.82,SE,144,4.0,10.0,44,0.00,,,0.00,67,WeatherTracker,2013-05-15 02:18:00,
2013-05-14 19:23:00,79.2,54.7,29.82,South,179,6.0,8.0,43,0.00,,,0.00,60,WeatherTracker,2013-05-15 02:23:00,
2013-05-14 19:28:00,78.7,54.9,29.82,SSE,149,1.0,8.0,44,0.00,,,0.00,32,WeatherTracker,2013-05-15 02:28:00,
2013-05-14 19:33:00,78.5,54.8,29.83,SE,132,2.0,8.0,44,0.00,,,0.00,40,WeatherTracker,2013-05-15 02:33:00,
2013-05-14 19:38:00,78.0,54.9,29.83,South,176,2.0,8.0,45,0.00,,,0.00,26,WeatherTracker,2013-05-15 02:38:00,
2013-05-14 19:43:00,77.6,54.6,29.83,SE,139,4.0,9.0,45,0.00,,,0.00,18,WeatherTracker,2013-05-15 02:43:00,
2013-05-14 19:49:00,76.9,54.5,29.83,SE,134,1.0,9.0,46,0.00,,,0.00,18,WeatherTracker,2013-05-15 02:49:00,
2013-05-14 19:53:00,76.5,54.2,29.83,SE,138,2.0,8.0,46,0.00,,,0.00,16,WeatherTracker,2013-05-15 02:53:00,
2013-05-14 19:58:00,76.1,54.4,29.82,SE,139,1.0,8.0,47,0.00,,,0.00,12,WeatherTracker,2013-05-15 02:58:00,
2013-05-14 20:04:00,75.8,54.1,29.83,SE,138,1.0,7.0,47,0.00,,,0.00,11,WeatherTracker,2013-05-15 03:04:00,
2013-05-14 20:09:00,75.5,54.4,29.83,SE,138,0.0,5.0,48,0.00,,,0.00,7,WeatherTracker,2013-05-15 03:09:00,
2013-05-14 20:14:00,75.1,54.1,29.83,SE,140,0.0,4.0,48,0.00,,,0.00,5,WeatherTracker,2013-05-15 03:14:00,
2013-05-14 20:19:00,74.8,54.3,29.83,SE,140,0.0,0.0,49,0.00,,,0.00,0,WeatherTracker,2013-05-15 03:19:00,
2013-05-14 20:24:00,74.4,54.0,29.83,SE,142,0.0,0.0,49,0.00,,,0.00,0,WeatherTracker,2013-05-15 03:24:00,
2013-05-14 20:29:00,74.1,53.7,29.83,SE,142,0.0,0.0,49,0.00,,,0.00,0,WeatherTracker,2013-05-15 03:29:00,
2013-05-14 20:34:00,73.8,54.0,29.83,SE,144,0.0,0.0,50,0.00,,,0.00,0,WeatherTracker,2013-05-15 03:34:00,
2013-05-14 20:39:00,73.2,53.4,29.83,SE,146,0.0,0.0,50,0.00,,,0.00,0,WeatherTracker,2013-05-15 03:39:00,
2013-05-14 20:44:00,72.5,53.3,29.83,SSE,160,1.0,0.0,51,0.00,,,0.00,0,WeatherTracker,2013-05-15 03:44:00,
2013-05-14 20:49:00,72.0,52.9,29.83,SSE,161,2.0,5.0,51,0.00,,,0.00,0,WeatherTracker,2013-05-15 03:49:00,
2013-05-14 20:54:00,71.3,52.8,29.83,SSE,162,2.0,5.0,52,0.00,,,0.00,0,WeatherTracker,2013-05-15 03:54:00,
2013-05-14 20:59:00,70.9,52.9,29.83,SSE,163,0.0,5.0,53,0.00,,,0.00,0,WeatherTracker,2013-05-15 03:59:00,
2013-05-14 21:01:00,70.7,52.7,29.83,SSE,162,0.0,4.0,53,0.00,,,0.00,0,WeatherTracker,2013-05-15 04:01:00,
2013-05-14 21:02:00,70.6,52.6,29.84,SSE,162,0.0,4.0,53,0.00,,,0.00,0,WeatherTracker,2013-05-15 04:02:00,
2013-05-14 21:07:00,70.4,52.9,29.83,SSE,163,0.0,4.0,54,0.00,,,0.00,0,WeatherTracker,2013-05-15 04:07:00,
2013-05-14 21:12:00,70.0,52.6,29.84,SSE,163,0.0,0.0,54,0.00,,,0.00,0,WeatherTracker,2013-05-15 04:12:00,
2013-05-14 21:17:00,69.7,52.3,29.84,SSE,165,0.0,0.0,54,0.00,,,0.00,0,WeatherTracker,2013-05-15 04:17:00,
2013-05-14 21:22:00,69.5,52.6,29.84,SSE,165,0.0,0.0,55,0.00,,,0.00,0,WeatherTracker,2013-05-15 04:22:00,
2013-05-14 21:27:00,69.3,52.4,29.84,SSE,165,0.0,0.0,55,0.00,,,0.00,0,WeatherTracker,2013-05-15 04:27:00,
2013-05-14 21:32:00,69.1,51.7,29.84,SSE,164,0.0,0.0,54,0.00,,,0.00,0,WeatherTracker,2013-05-15 04:32:00,
2013-05-14 21:37:00,68.9,52.1,29.84,SSE,164,0.0,0.0,55,0.00,,,0.00,0,WeatherTracker,2013-05-15 04:37:00,
2013-05-14 21:42:00,68.6,52.3,29.84,SSE,164,0.0,0.0,56,0.00,,,0.00,0,WeatherTracker,2013-05-15 04:42:00,
2013-05-14 21:48:00,67.9,51.6,29.84,SSE,164,0.0,0.0,56,0.00,,,0.00,0,WeatherTracker,2013-05-15 04:48:00,
2013-05-14 21:53:00,67.5,51.2,29.85,SSE,164,0.0,0.0,56,0.00,,,0.00,0,WeatherTracker,2013-05-15 04:53:00,
2013-05-14 21:58:00,67.2,51.4,29.85,SSE,164,0.0,0.0,57,0.00,,,0.00,0,WeatherTracker,2013-05-15 04:58:00,
2013-05-14 22:03:00,67.1,51.3,29.86,East,92,2.0,0.0,57,0.00,,,0.00,0,WeatherTracker,2013-05-15 05:03:00,
2013-05-14 22:08:00,67.1,51.3,29.86,East,90,1.0,6.0,57,0.00,,,0.00,0,WeatherTracker,2013-05-15 05:08:00,
2013-05-14 22:13:00,66.8,51.1,29.86,East,90,1.0,6.0,57,0.00,,,0.00,0,WeatherTracker,2013-05-15 05:13:00,
2013-05-14 22:18:00,66.4,51.2,29.86,East,90,0.0,4.0,58,0.00,,,0.00,0,WeatherTracker,2013-05-15 05:18:00,
2013-05-14 22:23:00,66.0,51.3,29.86,East,96,5.0,6.0,59,0.00,,,0.00,0,WeatherTracker,2013-05-15 05:23:00,
2013-05-14 22:28:00,65.5,50.8,29.86,East,100,5.0,6.0,59,0.00,,,0.00,0,WeatherTracker,2013-05-15 05:28:00,
2013-05-14 22:33:00,65.0,50.8,29.86,East,86,4.0,8.0,60,0.00,,,0.00,0,WeatherTracker,2013-05-15 05:33:00,
2013-05-14 22:38:00,64.6,50.4,29.86,ESE,116,4.0,8.0,60,0.00,,,0.00,0,WeatherTracker,2013-05-15 05:38:00,
2013-05-14 22:43:00,64.1,50.4,29.86,ESE,109,4.0,7.0,61,0.00,,,0.00,0,WeatherTracker,2013-05-15 05:43:00,
2013-05-14 22:48:00,63.7,50.0,29.86,ESE,107,4.0,7.0,61,0.00,,,0.00,0,WeatherTracker,2013-05-15 05:48:00,
2013-05-14 22:53:00,63.5,49.8,29.87,ENE,78,7.0,7.0,61,0.00,,,0.00,0,WeatherTracker,2013-05-15 05:53:00,
2013-05-14 22:58:00,63.3,49.6,29.87,East,81,5.0,8.0,61,0.00,,,0.00,0,WeatherTracker,2013-05-15 05:58:00,
2013-05-14 23:03:00,63.0,49.3,29.87,East,92,5.0,8.0,61,0.00,,,0.00,0,WeatherTracker,2013-05-15 06:03:00,
2013-05-14 23:08:00,62.7,49.5,29.87,ENE,77,5.0,7.0,62,0.00,,,0.00,0,WeatherTracker,2013-05-15 06:08:00,
2013-05-14 23:13:00,62.6,49.4,29.87,East,98,4.0,8.0,62,0.00,,,0.00,0,WeatherTracker,2013-05-15 06:13:00,
2013-05-14 23:18:00,62.3,49.5,29.87,ESE,108,5.0,8.0,63,0.00,,,0.00,0,WeatherTracker,2013-05-15 06:18:00,
2013-05-14 23:23:00,62.0,49.3,29.87,East,98,5.0,9.0,63,0.00,,,0.00,0,WeatherTracker,2013-05-15 06:23:00,
2013-05-14 23:28:00,61.8,49.1,29.87,East,88,2.0,9.0,63,0.00,,,0.00,0,WeatherTracker,2013-05-15 06:28:00,
2013-05-14 23:33:00,61.5,48.8,29.87,ESE,102,6.0,9.0,63,0.00,,,0.00,0,WeatherTracker,2013-05-15 06:33:00,
2013-05-14 23:39:00,61.2,48.9,29.87,ESE,105,6.0,9.0,64,0.00,,,0.00,0,WeatherTracker,2013-05-15 06:39:00,
2013-05-14 23:44:00,60.9,49.1,29.88,East,94,7.0,11.0,65,0.00,,,0.00,0,WeatherTracker,2013-05-15 06:44:00,
2013-05-14 23:49:00,60.7,48.9,29.88,ESE,109,6.0,11.0,65,0.00,,,0.00,0,WeatherTracker,2013-05-15 06:49:00,
2013-05-14 23:54:00,60.4,48.6,29.88,ESE,117,2.0,8.0,65,0.00,,,0.00,0,WeatherTracker,2013-05-15 06:54:00,
2013-05-14 23:59:00,60.1,48.7,29.88,ESE,111,6.0,11.0,66,0.00,,,0.00,0,WeatherTracker,2013-05-15 06:59:00,